Location: Dammartin
(48.9032°N, 1.6195°E)
Time: 14:13:24
(UTC+00:00)

DELTA 2 DEB (DPAF) - Pass Details

Date: 03 February 2023
Orbit: 624 x 629 km, 98.4° (Epoch: 29 March)

Event Time Altitude Azimuth Distance (km) Brightness Sun altitude
Rises 17:46:25 0° 14° (NNE) 2,930 7.2 -9.0°
Reaches altitude 10° 17:48:37 10° 14° (NNE) 2,019 6.4 -9.3°
Maximum altitude 17:53:01 87° 290° (WNW) 640 4.1 -10.0°
Drops below altitude 10° 17:57:24 10° 198° (SSW) 2,012 7.1 -10.7°
Sets 17:59:36 0° 197° (SSW) 2,917 8.0 -11.1°
